Location: Katowice
(50.2611°N, 19.0242°E)
Time: 00:18:08
(UTC+02:00)

Explorer 7 - Pass Details

Date: 28 August 2019
Orbit: 485 x 680 km, 50.3° (Epoch: 22 September)

Event Time Altitude Azimuth Distance (km) Brightness Sun altitude
Rises 10:17:25 0° 260° (W) 3,016 10.3 39.3°
Reaches altitude 10° 10:19:48 10° 260° (W) 2,088 9.6 39.6°
Maximum altitude 10:24:39 87° 173° (S) 653 8.0 40.2°
Drops below altitude 10° 10:29:16 10° 84° (E) 1,993 10.3 40.7°
Sets 10:31:31 0° 84° (E) 2,867 10.9 41.0°
